STARLINK-78 (44290 NORAD) Tracking and Keplerian Element Data

This shows tracking and keplerian element data for the satellite.

Feedback or suggestion? Click here.




ElementValue
Catalog44290
NameSTARLINK-78
Epoch Orbit7450
Epoch Day260.06253074
Epoch Year2020
RAAN114.2818
Inclination52.9953
Eccentricity0.0009431
Argument of Perigee279.9412
Mean Anonmoly80.2003
Mean Motion16.31563382
Decay Rate0.13881108
L11 44290U 19029BH 20260.06253074 .13881108 12160-4 25133-2 0 9997
L22 44290 52.9953 114.2818 0009431 279.9412 80.2003 16.31563382 74507



Live tracking and technical data element details for STARLINK-78 (NORAD 44290). STARLINK-78 can be tracked NOW for your location showing map with azimuth and elevation plus other details from your city location.







IsCatalogInMostPopularTable: catalog: 44290, numindb: 596
Update: records affected: 1



GetName: 44290 STARLINK-78

Hit Count: updated at: Tue, 03 Dec 2024 02:43:14 GMT